Volver al catálogo

STARLINK-3172

ActivoComunicacionesVLEO
NORAD 51139·PAYLOAD·🇺🇸 United States

Lanzado Jan 19, 2022 desde Cape Canaveral Space Force Station

Loading…

Próximos Pases (próximas 24 horas)

TLE

ActualizadoSource: CelesTrak SupGP

Época: Sep 14, 2026, 22:07 UTC

1 51139C 22005AM  26257.92201389 -.00029523  00000+0 -89604-3 0  2573
2 51139  53.1583 155.9910 0001375  85.9294 280.4891 15.33556423    19

Sigue STARLINK-3172 en tiempo real con AllMySat

Download on the App Store